STARLINK-2440

operational
NORAD ID: 48105 Int'l Des: 2021-027 Owner: SPXS Country: US Constellation: starlink
LEOCIRCULARSTARLINK_TYPE

About STARLINK-2440

Description loading...

Live Position

Loading 3D Globe...

Upcoming Passes

Altitude History

Altitude vs Time

uPlot chart will show altitude changes over time

Two-Line Element Set

1 48105U 21027P 25251.55181496 -.00000098 00000-0 12280-4 0 9999
2 48105 53.0531 199.2659 0001285 88.1920 271.9216 15.06401589245943
Epoch: Sep 8, 2025 • Age: 14 hours

Current Status

Altitude 548.6 km
Velocity 7.59 km/s
Sub-Earth Point -3.11°S, 11.27°W
Launch Date Apr 7, 2021
Age 4.4 years
Type internet

Technical Details

Classification Payload
Mass 260.00 kg
Dry Mass 248.00 kg
Total Mass 260.00 kg
Length 0.20 m
Diameter 2.80 m
Span 9.00 m
Shape Box + pan
Manufacturer SPXS
Bus Type Starlink
Phase Status In Orbit
Owner/State SPXS/US

Large Constellations

Loading constellations...